Regional Weather Roundup
Issued by NWS

Home | Current Version | Previous Version | Text Only | Print | Product List | Glossary On
Versions: 1 2 3 4 5 6 7 8 9 10 11 12 13 14 15 16 17 18 19 20 21 22 23 24 25 26 27 28 29 30 31 32 33 34 35 36 37 38 39 40 41 42 43 44 45 46 47 48 49 50
000
ASUS45 KREV 200110
RWRNV
NEVADA REGIONAL WEATHER ROUNDUP
NATIONAL WEATHER SERVICE RENO NV
500 PM PST SUN NOV 19 2017

NOTE: "FAIR" INDICATES FEW OR NO CLOUDS BELOW 12,000 FEET WITH NO
SIGNIFICANT WEATHER AND/OR OBSTRUCTIONS TO VISIBILITY.

NVZ001-003-004-200200-
WESTERN NEVADA

CITY           SKY/WX    TMP DP  RH WIND       PRES   REMARKS
RENO           CLOUDY    47  31  53 SE6       30.05F
CARSON CITY    FAIR      45  32  61 NE7       30.07F
MINDEN         FAIR      39  32  75 CALM      30.06F HAZE
SLIDE MTN        N/A     32  16  51 SW39        N/A
PYRAMID LAKE     N/A     43 N/A N/A W1          N/A
FALLON         CLOUDY    41  21  44 NE6       30.07S
LOVELOCK       CLOUDY    39  21  48 W5        30.06F
HAWTHORNE      CLEAR     50  27  40 CALM      30.06S
$$

NVZ002-CAZ072-073-200200-
NORTHERN AND CENTRAL SIERRA

CITY           SKY/WX    TMP DP  RH WIND       PRES   REMARKS
S. LAKE TAHOE  MOCLDY    46  20  35 SW7       30.12R
TRUCKEE        CLOUDY    45  18  33 W3        30.11F
SQUAW VLY 8000   N/A     37   7  28 SW9         N/A
SUSANVILLE     CLEAR     39  30  70 CALM      30.09S
BLUE CANYON    CLOUDY    44  28  53 SE6       30.12F
MAMMOTH LAKES  FAIR      45  16  31 CALM      30.16S
$$

NVZ030-031-036-200200-
NORTHERN NEVADA

CITY           SKY/WX    TMP DP  RH WIND       PRES   REMARKS
ELKO           CLOUDY    36  27  69 CALM      30.08S
WINNEMUCCA     CLOUDY    39  28  64 CALM      30.04F
WENDOVER       CLOUDY    35  24  64 CALM      30.13F
$$

NVZ035-037-200200-
CENTRAL NEVADA

CITY           SKY/WX    TMP DP  RH WIND       PRES   REMARKS
ELY            CLOUDY    41   1  18 NE9       30.11R
EUREKA           N/A     37  23  56 S5        30.09S
$$

NVZ013-014-200200-
SOUTH CENTRAL NEVADA

CITY           SKY/WX    TMP DP  RH WIND       PRES   REMARKS
TONOPAH        MOCLDY    45  -3  13 CALM      30.11R
$$

NVZ017-020-022-200200-
SOUTHERN NEVADA

CITY           SKY/WX    TMP DP  RH WIND       PRES   REMARKS
LAS VEGAS      MOCLDY    59  11  15 CALM      30.06S
N. LAS VEGAS   PTCLDY    59   9  13 CALM      30.06S
NELLIS AFB     PTCLDY    59  10  14 CALM      30.05F
HENDERSON      PTCLDY    54  15  21 CALM      30.08F
MERCURY        MOCLDY    52   5  15 CALM      30.07R
$$



USA.gov is the U.S. government's official web portal to all federal, state and local government web resources and services.